Location: Charbonni�res
(45.9952°N, 2.9982°E)
Time: 18:32:02
(UTC+00:00)

USA 308 - Pass Details

Date: 29 November 2020
Orbit: 563 x 584 km, 54.0° (Epoch: 11 January)

Event Time Altitude Azimuth Distance (km) Brightness Sun altitude
Exits shadow 05:12:11 26° 341° (NNW) 1,167 4.2 -19.4°
Maximum altitude 05:13:09 29° 5° (N) 1,097 4.2 -19.2°
Drops below altitude 10° 05:16:58 10° 66° (ENE) 1,909 6.3 -18.6°
Sets 05:19:29 0° 78° (ENE) 2,809 7.6 -18.2°
